Terminal Aerodrome Forecast
Issued by NWS

Home | Current Version | Previous Version | Text Only | Print | Product List | Glossary On
Versions: 1 2 3 4 5 6 7 8 9 10 11 12
000
FTUS45 KRIW 272300
TAFCPR
TAF
KCPR 272321Z 2800/2824 23020G30KT P6SM SCT060 BKN130
     FM281000 23018G28KT P6SM SCT050 BKN100
     FM281900 23024G30KT P6SM VCSH SCT040 BKN080=

USA.gov is the U.S. government's official web portal to all federal, state and local government web resources and services.